User: anonymous   Login
Location: Unspecified
(0.0000°N, 0.0000°E)
Time: 11:49:42
(UTC+00:00)
Language:

ROBUSTA 1B - Orbit

View from above orbital plane
View from above orbital plane
View from above satellite
View from above satellite

Ground track
Ground track

The orbit data is extracted from the following two-line orbital elements,

1 42792U 17036AD  18168.89504027 +.00001037 +00000-0 +48339-4 0  9992
2 42792 097.4009 228.8141 0013098 077.6472 282.6229 15.22036223054630
Epoch (UTC): 17 June 2018 21:28:51
Eccentricity: 0.0013098
inclination: 97.4009°
perigee height: 490 km
apogee height: 509 km
right ascension of ascending node: 228.8141°
argument of perigee: 77.6472°
revolutions per day: 15.22036223
mean anomaly at epoch: 282.6229°
orbit number at epoch: 5463

The dashed part of the orbit path shows where the satellite is in the earth's shadow,  

DLR